Location: St. Louis
(38.6270°N, 90.1994°W)
Time: 13:21:45
(UTC-06:00)

Transit 2A - Pass Details

Date: 06 December 2021
Orbit: 591 x 967 km, 66.7° (Epoch: 17 January)

Event Time Altitude Azimuth Distance (km) Brightness Sun altitude
Rises 08:39:09 0° 330° (NNW) 3,661 8.9 14.0°
Reaches altitude 10° 08:41:45 10° 329° (NNW) 2,704 8.3 14.3°
Maximum altitude 08:48:08 78° 244° (WSW) 957 6.8 15.2°
Drops below altitude 10° 08:54:06 10° 159° (SSE) 2,541 10.3 16.0°
Sets 08:56:29 0° 158° (SSE) 3,427 10.8 16.3°
